Location: Newark
(34.1333°N, 7.9667°W)
Time: 03:44:19
(UTC+00:00)

Transit 2A - Pass Details

Date: 14 June 2021
Orbit: 598 x 960 km, 66.7° (Epoch: 30 July)

Event Time Altitude Azimuth Distance (km) Brightness Sun altitude
Rises 18:45:02 0° 239° (WSW) 2,883 9.6 10.4°
Reaches altitude 10° 18:47:47 10° 255° (WSW) 1,952 9.2 9.8°
Maximum altitude 18:51:04 21° 305° (NW) 1,370 9.2 9.2°
Drops below altitude 10° 18:54:21 10° 355° (N) 1,942 8.6 8.6°
Sets 18:57:05 0° 12° (NNE) 2,862 9.1 8.0°
